www.pogodaiklimat.ru

Погода и климат >> Архив погоды >> Казахстан >> Исатай


ПОГОДА в Исатай

  • Прогноз погоды в Исатай
  • Монитор погоды в Исатай
  • Климат города

АРХИВ ПОГОДЫ в Исатай

Время (UTC), дата Ветер
(напр.,м/с)
 
Видим.   Явления Облачность Т
(С)
Тd
(С)
f
(%)
Тe
(С)
Тes
(С)
Комфортность P
(гПа)
Po
(гПа)
Тmin
(С)
Tmax
(С)
R
(мм)
R24
(мм)
S
(см)
03 18.05 В 4 10 км ясно +15.2 -29.8 3 +15 +16 1018.3 1021.6 2
06 18.05 ЮВ 6 12 км ясно +22.7 -24.7 3 +20 +24 1019.1 1022.3
09 18.05 Ю 7 13 км ясно +23.5 -24.2 3 +20 +25 1019.0 1022.2
12 18.05 Ю 7 13 км ясно +22.9 -24.6 3 +20 +22 1018.6 1021.8
15 18.05 Ю 4 11 км ясно +21.1 -25.8 3 +19 +20 1018.6 1021.8 +23.9
18 18.05 ЮВ 2 11 км ясно +16.1 -29.2 3 +16 +16 1018.9 1022.2 +23.9
21 18.05 В 3 11 км ясно +15.1 -29.9 3 +15 +15 1018.1 1021.4
03 19.05 ЮВ 3 11 км н/о +17.4 -28.3 3 +17 +17 1016.2 1019.5 1
06 19.05 ЮВ 7 13 км н/о +22.5 -24.9 3 +20 +20 1016.5 1019.7
09 19.05 ЮВ 8 10 км н/о +23.5 -24.2 3 +20 +20 1016.1 1019.3
12 19.05 ЮВ 9 11 км н/о +24.2 -23.7 3 +21 +21 комфорт 1014.3 1017.5
15 19.05 ЮВ 6 13 км н/о +24.3 -23.7 3 +21 +21 комфорт 1012.8 1016.0 +25.6
18 19.05 Ю 2 8000 м ясно +18.1 -27.8 3 +19 +19 1013.0 1016.3 +25.6
21 19.05 СВ 1 7000 м ясно +16.8 -28.7 3 +18 +18 1012.2 1015.5
00 20.05 В 3 9000 м ясно +15.8 -29.4 3 +16 +16 1010.5 1013.8
03 20.05 В 3 10 км ясно +17.5 -28.3 3 +18 +19 1010.0 1013.3 1
06 20.05 В 6 12 км н/о +24.2 -23.7 3 +21 +21 комфорт 1008.2 1011.4 0.3
09 20.05 ЮВ 9 13 км н/о +25.2 -23.1 3 +21 +21 комфорт 1007.4 1010.6
12 20.05 ЮВ 9 13 км н/о +25.7 -22.7 3 +22 +22 комфорт 1005.6 1008.8
15 20.05 ЮВ 4 13 км н/о +23.9 -23.9 3 +21 +21 комфорт 1004.4 1007.6 +25.7
18 20.05 Ю 1 10 км н/о +20.3 -26.4 3 +20 +20 1003.8 1007.0 +25.7 0.2
21 20.05 СЗ 3 12 км н/о +19.3 -27.0 3 +19 +19 1001.4 1004.6
00 21.05 З 3 8000 м ясно +16.7 -28.8 3 +17 +17 1000.5 1003.7
03 21.05 З 3 9000 м н/о +18.2 -27.8 3 +18 +18 1000.7 1003.9 8
06 21.05 З 7 11 км н/о +17.9 -28.0 3 +17 +17 1001.5 1004.7 2
09 21.05 З 6 13 км н/о +24.3 -23.7 3 +21 +21 комфорт 1001.7 1004.9
12 21.05 З 6 14 км ясно +25.8 -22.7 3 +22 +26 комфорт 1001.7 1004.8
15 21.05 З 7 15 км ясно +24.6 -23.5 3 +21 +21 комфорт 1001.5 1004.7 +25.8
18 21.05 З 3 14 км ясно +18.0 -27.9 3 +18 +18 1002.8 1006.0 +25.8 0.2
21 21.05 З 3 12 км ясно +14.6 -30.2 3 +14 +14 1003.0 1006.3
00 22.05 З 3 12 км ясно +12.6 -31.6 3 +12 +12 1002.6 1005.9
03 22.05 З 6 12 км н/о +16.8 -28.7 3 +16 +16 1002.9 1006.1 1
09 22.05 З 8 14 км н/о +21.6 -25.5 3 +19 +19 1002.5 1005.7
12 22.05 З 10 13 км н/о +21.4 -25.6 3 +19 +19 1002.7 1005.9
15 22.05 СЗ 8 14 км н/о +21.3 -25.7 3 +19 +19 1004.0 1007.2 +22.8
18 22.05 З 2 11 км ясно +16.7 -28.8 3 +17 +17 1005.7 1009.0 +22.8
21 22.05 ЮЗ 2 7000 м ясно +13.6 -30.9 3 +14 +14 1005.9 1009.2
00 23.05 ЮЗ 3 11 км ясно +13.1 -31.3 3 +13 +13 1006.2 1009.5
03 23.05 СЗ 4 10 км н/о +15.2 -29.8 3 +15 +15 1008.0 1011.3 1
06 23.05 СЗ 5 12 км н/о +16.3 -29.1 3 +16 +16 1009.9 1013.2 0.6
09 23.05 З 8 14 км н/о +18.4 -27.6 3 +17 +17 1011.2 1014.5
12 23.05 СЗ 6 13 км н/о +17.6 -28.2 3 +17 +17 1012.4 1015.7
15 23.05 СЗ 3 14 км н/о +18.6 -27.5 3 +19 +19 1013.1 1016.4 +18.6
18 23.05 С 3 12 км ясно +12.5 -31.7 3 +12 +12 1014.8 1018.1 +18.6 0.1
21 23.05 С 2 12 км ясно +9.1 -34.0 3 +9 +9 1016.0 1019.4
00 24.05 С 3 11 км ясно +7.0 -35.5 3 +5 +5 1017.2 1020.6
03 24.05 СВ 2 12 км ясно +11.7 -32.2 3 +12 +14 1018.1 1021.4 2
06 24.05 СВ 5 13 км ясно +17.8 -28.1 3 +17 +24 1018.2 1021.5
09 24.05 В 6 14 км н/о +20.9 -26.0 3 +19 +19 1017.2 1020.4
12 24.05 СВ 5 14 км ясно +22.8 -24.7 3 +20 +25 1016.2 1019.4
15 24.05 СВ 6 13 км ясно +21.8 -25.3 3 +19 +20 1016.1 1019.3 +22.8
18 24.05 СВ 2 13 км ясно +15.7 -29.5 3 +16 +16 1017.8 1021.1 +22.8

 

Местоположение метеостанции Исатай (Атырауская область, Казахстан): широта 46.80 долгота 50.07 высота над уровнем моря м.

В архиве по умолчанию представлена погода в Исатай за последнюю неделю. Архивные данные за месяц целиком и за предыдущие месяцы, начиная с января 2011 года, Вы можете получить, выбрав интересующий диапазон дат из раскрывающегося списка и нажав кнопку "Ввод!".

Внимание! Время в таблицах - всемирное. Для получения местного времени необходимо прибавить поправку, которая в Исатай равна 5 ч.

Смотрите также архив погоды в соседних городах и на ближайших метеорологических станциях:

Погода в Ганюшкино (Атырауская область, Казахстан) (65 км)
Погода в Зеленге (Астраханская область, Россия) (131 км)
Погода в Атырау (Атырауская область, Казахстан) (145 км)
Погода в Махамбете (Атырауская область, Казахстан) (150 км)
Погода в Жанауштогане (Атырауская область, Казахстан) (155 км)
Погода в Досанге (Астраханская область, Россия) (163 км)
Погода в Астрахани (Астраханская область, Россия) (170 км)
Погода на Кулалы Острове (Мангистауская область, Казахстан) (199 км)
Погода в Индерборском (Атырауская область, Казахстан) (222 км)
Погода в Харабали (Астраханская область, Россия) (224 км)

Пояснения к столбцам:

Ветер - указаны скорость ветра в м/с - средняя за 10 мин, порывы в срок и между сроками (в фигурных скобках) и направление, откуда дует ветер: С - северный, СВ - северо-восточный, В - восточный, ЮВ - юго-восточный, Ю - южный, ЮЗ - юго-западный, З - западный, СЗ - северо-западный.
Видимость - горизонтальная дальность видимости в метрах или километрах. При видимости от 1 до 10 км при отсутствии осадков обычно наблюдается дымка, при ухудшении видимости до 1 км и менее - туман. В сухую погоду видимость может ухудшаться дымом, пылью или мглою.
Явления - указаны атмосферные явления, наблюдавшиеся в срок или в последний час перед сроком; фигурными скобками обозначены явления, наблюдавшиеся между сроками (за 1-3 часа до срока); квадратными скобками обозначены град или гололедные отложения с указанием их диаметра в мм.
Облачность - указаны через наклонную черту общая и нижняя облачность в баллах и высота нижней границы облаков в метрах; квадратными скобками обозначены формы облаков: Ci - перистые, Cs - перисто-слоистые, Cc - перисто-кучевые, Ac - высококучевые, As - высокослоистые, Sc - слоисто-кучевые, Ns - слоисто-дождевые, Cu - кучевые, Cb - кучево-дождевые. Подробнее классификацию облаков см. в Атласе облаков (PDF).
T - Температура воздуха - температура, измеренная на высоте 2 м над землей.
Td - Температура точки росы - температура, при понижении до которой содержащийся в воздухе водяной пар достигнет насыщения.
f - Относительная влажность воздуха - влажноcть воздуха, измеренная на высоте 2 м над землей.
Te - Эффективная температура - температура, которую ощущает одетый по сезону человек в тени. Характеристика душности погоды. При расчете учитывается влияние влажности воздуха и скорости ветра на теплоощущения человека.
Tes - Эффективная температура на солнце - температура, которую ощущает человек, с поправкой на солнечный нагрев. Характеристика знойности погоды. Зависит от высоты солнца над горизонтом, облачности и скорости ветра. Ночью, в пасмурную погоду, а также при ветре 12 м/с и более поправка равна нулю.
P - Атмосферное давление - приведенное к уровню моря атмосферное давление.
Po - Атмосферное давление - измеренное на уровне метеостанции атмосферное давление.
Tmin - Минимальная температура - минимум температуры воздуха на высоте 2 м над землей.
Tmax - Максимальная температура - максимум температуры воздуха на высоте 2 м над землей.
R - Количество осадков - Количество выпавших осадков за период времени, мм. При наведении курсора мыши на число - период времени, за который выпало указанное количество осадков.
R24 - Количество осадков - Количество выпавших осадков за 24 часа, мм.
S - Снежный покров - Высота снежного покрова, см. При наведении курсора мыши на число - состояние снежного покрова и степень покрытия местности в баллах.